, NV

(GMT )
Las Vegas

Weather History for KBJN - February, 2013

Change the Weather History Date:

Saturday, February 23, 2013

  Actual Average Record
Temperature  
Mean Temperature 31 °F -  
Max Temperature 39 °F - - ()
Min Temperature 21 °F - - ()
Degree Days  
Heating Degree Days 34    
Moisture  
Dew Point 11 °F    
Average Humidity 45    
Maximum Humidity 64    
Minimum Humidity 23    
Precipitation  
Precipitation 0.00 in - - ()
Sea Level Pressure  
Sea Level Pressure 30.17 in    
Wind  
Wind Speed 12 mph (NW)    
Max Wind Speed 23 mph    
Max Gust Speed 31 mph    
Visibility 10 miles    
Events      
T = Trace of Precipitation, MM = Missing Value Source: NWS Daily Summary

Daily Weather History Graph

Daily Weather History Graph

Search for Another Location

Airport or City:

Trip Planner

Search our weather history database for the weather conditions in past years. The results will help you decide how hot, cold, wet, or windy it might be!

Date:

Astronomy

Feb. 23, 2013 Rise Set
Actual Time 6:24 AM PST 5:33 PM PST
Civil Twilight 5:57 AM PST 5:59 PM PST
Nautical Twilight 5:27 AM PST 6:30 PM PST
Astronomical Twilight 4:56 AM PST 7:00 PM PST
Moon 3:49 PM PST (2/23) 4:47 AM PST (2/23)
Length of Visible Light 12h 01m
Length of Day
11h 09m
Waxing Gibbous, 96% of the Moon is Illuminated
Feb 23
Waxing Gibbous
Feb 25
Full
Mar 4
Last Quarter
Mar 11
New
Mar 19
First Quarter

Hourly Weather History & Observations

Time (PST) Temp. Windchill Dew Point Humidity Pressure Visibility Wind Dir Wind Speed Gust Speed Precip Events Conditions
12:56 AM 30.9 °F 23.5 °F 19.0 °F 61% 30.26 in 10.0 mi WSW 8.1 mph - N/A   Clear
1:56 AM 34.0 °F 28.8 °F 17.1 °F 50% 30.25 in 10.0 mi SSW 5.8 mph - N/A   Clear
2:56 AM 33.1 °F 28.7 °F 16.0 °F 50% 30.24 in 10.0 mi SSW 4.6 mph - N/A   Clear
3:56 AM 30.0 °F 23.2 °F 15.1 °F 54% 30.20 in 10.0 mi South 6.9 mph - N/A   Clear
4:56 AM 30.9 °F 24.3 °F 12.9 °F 47% 30.19 in 10.0 mi Variable 6.9 mph - N/A   Clear
5:56 AM 28.9 °F 22.8 °F 14.0 °F 54% 30.16 in 10.0 mi South 5.8 mph - N/A   Clear
6:56 AM 32.0 °F 20.5 °F 14.0 °F 48% 30.11 in 10.0 mi SW 18.4 mph 24.2 mph N/A   Clear
7:56 AM 36.0 °F 25.3 °F 14.0 °F 41% 30.10 in 10.0 mi SW 19.6 mph 26.5 mph N/A   Clear
8:56 AM 37.9 °F 28.9 °F 14.0 °F 38% 30.18 in 10.0 mi WNW 16.1 mph 28.8 mph N/A   Clear
9:52 AM 34.0 °F 22.1 °F 23.0 °F 64% 30.20 in 10.0 mi North 21.9 mph 31.1 mph N/A   Scattered Clouds
10:56 AM 33.1 °F 23.4 °F 18.0 °F 54% 30.21 in 10.0 mi NNE 13.8 mph - N/A   Partly Cloudy
12:45 PM 37.4 °F 27.5 °F 6.8 °F 28% 29.93 in 10.0 mi WNW 18.4 mph 29.9 mph N/A   Partly Cloudy
1:56 PM 39.0 °F 30.6 °F 3.9 °F 23% 30.18 in 10.0 mi NW 15.0 mph 25.3 mph N/A   Clear
3:56 PM 36.0 °F 25.0 °F 1.9 °F 24% 30.19 in 10.0 mi NW 20.7 mph 27.6 mph N/A   Clear
4:30 PM 35.6 °F 24.8 °F 6.8 °F 30% 29.94 in 10.0 mi North 19.6 mph 28.8 mph N/A   Mostly Cloudy
4:36 PM 33.8 °F 22.5 °F 10.4 °F 38% 29.94 in 10.0 mi North 19.6 mph 26.5 mph N/A   Mostly Cloudy
4:53 PM 32.0 °F 20.1 °F 8.6 °F 38% 29.95 in 10.0 mi North 19.6 mph 27.6 mph N/A   Scattered Clouds
4:56 PM 32.0 °F 19.2 °F 8.1 °F 37% 30.21 in 10.0 mi North 23.0 mph 31.1 mph N/A   Scattered Clouds
6:56 PM 26.1 °F 14.5 °F 5.0 °F 41% 30.27 in 10.0 mi North 13.8 mph - N/A   Clear
8:56 PM 23.0 °F 10.1 °F 8.1 °F 53% 30.30 in 10.0 mi NNW 15.0 mph - N/A   Clear
9:56 PM 23.0 °F 10.6 °F 8.1 °F 53% 30.31 in 10.0 mi North 13.8 mph - N/A   Clear
10:56 PM 23.0 °F 9.6 °F 8.1 °F 53% 30.31 in 10.0 mi North 16.1 mph - N/A   Clear
11:56 PM 21.0 °F 9.9 °F 9.0 °F 60% 30.32 in 10.0 mi NNW 10.4 mph - N/A   Clear